Regional Weather Roundup
Issued by NWS Midland/Odessa, TX

Skip options and go directly to product.
Home | Oldest Version | Previous Version | Current Version | All | Graphics & Text | Save Text | Print | Product List | Glossary On

Skip product version selection by date and time.   
562
ASUS44 KMAF 201210
RWRMAF
MIDLAND AREA WEATHER ROUNDUP
NATIONAL WEATHER SERVICE MIDLAND TX
700 AM CDT WED AUG 20 2014

...IN SOUTHWEST TEXAS AND SOUTHEAST NEW MEXICO...

CITY           SKY/WX    TMP DP  RH WIND       PRES   REMARKS
ALPINE         CLOUDY    71  61  72 SW7       30.09R
ANDREWS        FAIR      72  64  75 S7        29.94R
ARTESIA        MOCLDY    73  57  56 SW5       29.93R
BIG SPRING     CLEAR     74  64  70 SE12      29.95R
CARLSBAD       CLOUDY    76  60  57 N5        29.89R
DRYDEN           N/A     78  66  66 E3        29.91R
FORT STOCKTON  CLOUDY    74  66  76 S6        29.94R
GUAD PASS      CLOUDY    63  57  81 W18       30.07S
HOBBS          CLEAR     70  63  78 S6        29.96
MARFA          CLOUDY    66  63  88 S8        30.10R
MIDLAND AIRPK  CLEAR     74  64  72 S7        29.93S
MIDLAND INTL   CLEAR     74  64  71 S10       29.92S
ODESSA         CLEAR     74  64  71 S10       29.93S
PECOS          CLOUDY    77  62  58 E6        29.91R
PRESIDIO       FAIR      75  65  71 CALM      29.96R
SEMINOLE       CLEAR     69  62  78 SE5       29.95R
SNYDER         CLEAR     73  67  82 S9        29.94R
WINK           CLOUDY    78  65  63 SE8       29.90R
$$
...OTHER STATIONS IN TEXAS...

CITY           SKY/WX    TMP DP  RH WIND       PRES   REMARKS
ABILENE        CLEAR     75  66  73 S15       29.94R
AMARILLO       CLEAR     69  63  81 S14       29.93R
AUSTIN         MOCLDY    79  75  87 S6        29.95R
BROWNSVILLE    PTCLDY    78  77  96 SE5       29.90R
CORPUS CHRISTI PTCLDY    78  76  93 SE7       29.90R
DALLAS FTW     CLOUDY    80  70  71 S12G22    29.93R
DEL RIO        CLEAR     78  68  71 E13       29.89R
EL PASO        PTCLDY    70  57  63 SW14      29.99R
HOUSTON INT    PTCLDY    74  74 100 CALM      29.96R
LUBBOCK        PTCLDY    71  62  73 S12       29.93S
SAN ANGELO     CLEAR     75  66  73 S14G21    29.93R
SAN ANTONIO    MOCLDY    79  73  82 S15       29.96R
WACO           MOCLDY    78  72  81 S12       29.95R
WICHITA FALLS  NOT AVBL
$$
...OTHER LOCATIONS IN NEW MEXICO...

CITY           SKY/WX    TMP DP  RH WIND       PRES   REMARKS
ALAMAGORDO     PTCLDY    68  55  64 S13       29.98R
ALBUQUERQUE    CLOUDY    68  52  56 CALM      30.07R
CANNON AFB     CLEAR     65  64  97 S6        29.96R
CLOVIS           N/A     64  59  82 S9        29.99R
HOLLOMAN AFB   PTCLDY    70  57  64 S16       29.96R
ROSWELL        PTCLDY    69  58  67 W6        29.91R
RUIDOSO        PTCLDY    59  48  67 W5        30.15S
SANTA FE       CLOUDY    62  50  64 W3        30.09R
TRUTH OR CONSE CLOUDY    71  55  56 NW8       30.02R
TUCUMCARI      CLEAR     69  57  65 S9        29.90S
$$

USA.gov is the U.S. government's official web portal to all federal, state and local government web resources and services.